Saltar para o conteúdo principal

Montalegre

ID 1210611 · 41.8228, -7.7880 mapa

Última leitura · 2026-05-09 18:00 (Europe/Lisbon)

Temperatura
5.9 °C
Humidade
99 %
Pressão
Precipitação
3.3 mm
Radiação
278 W/m²
Velocidade do vento
2.2 km/h
Direcção do vento
NE · Nordeste

Histórico de 24 horas

Hora (Europe/Lisbon) Temperatura Humidade Pressão Chuva Vento Direcção
2026-05-09 18:00 5.9 °C 99 % 3.3 mm 2.2 km/h NE
2026-05-09 17:00 7.5 °C 99 % 7.6 mm 11.5 km/h SW
2026-05-09 16:00 9.3 °C 99 % 0.0 mm 11.9 km/h E
2026-05-09 15:00 8.8 °C 99 % 1.7 mm 9.4 km/h E
2026-05-09 14:00 8.5 °C 99 % 0.1 mm 8.6 km/h E
2026-05-09 13:00 8.3 °C 99 % 0.7 mm 11.5 km/h E
2026-05-09 12:00 8.6 °C 97 % 0.6 mm 10.4 km/h E
2026-05-09 11:00 9.0 °C 93 % 0.0 mm 9.0 km/h E
2026-05-09 10:00 9.0 °C 95 % 0.0 mm 9.0 km/h E
2026-05-09 09:00 8.9 °C 98 % 0.0 mm 8.3 km/h E
2026-05-09 08:00 8.3 °C 99 % 0.0 mm 7.2 km/h E
2026-05-09 07:00 7.7 °C 99 % 0.0 mm 7.9 km/h NE
2026-05-09 06:00 7.8 °C 99 % 0.0 mm 5.8 km/h E
2026-05-09 05:00 7.8 °C 99 % 0.0 mm 8.6 km/h E
2026-05-09 04:00 7.8 °C 99 % 0.0 mm 9.7 km/h NE
2026-05-09 03:00 8.3 °C 96 % 0.2 mm 11.5 km/h NE
2026-05-09 02:00 8.0 °C 95 % 0.0 mm 7.2 km/h E
2026-05-09 01:00 8.4 °C 92 % 0.0 mm 6.1 km/h NE
2026-05-09 00:00 7.9 °C 97 % 0.0 mm 7.2 km/h E
2026-05-08 23:00 7.6 °C 99 % 0.0 mm 5.4 km/h E
2026-05-08 22:00 8.3 °C 97 % 0.0 mm 8.6 km/h E
2026-05-08 21:00 9.2 °C 85 % 0.0 mm 6.1 km/h E
2026-05-08 20:00 10.1 °C 78 % 0.0 mm 1.8 km/h E
2026-05-08 19:00 10.0 °C 83 % 0.0 mm 4.0 km/h S